Regional Weather Roundup
Issued by NWS

Home | Current Version | Previous Version | Graphics & Text | Print | Product List | Glossary On
Versions: 1 2 3 4 5 6 7 8 9 10 11 12 13 14 15 16 17 18 19 20 21 22 23 24 25 26 27 28 29 30 31 32 33 34 35 36 37 38 39 40 41 42 43 44 45 46 47 48 49 50
000
ASUS43 KDTX 250510
RWRMI
MICHIGAN HOURLY REGIONAL WEATHER ROUNDUP
NATIONAL WEATHER SERVICE DETROIT/PONTIAC MI
100 AM EDT MON SEP 25 2017

NOTE: "FAIR" INDICATES FEW OR NO CLOUDS BELOW 12,000 FEET WITH NO
SIGNIFICANT WEATHER AND/OR OBSTRUCTION TO VISIBILITY.

MIZ047>049-052>055-059>063-066>070-074>076-081>083-250600-
SOUTHEAST LOWER MICHIGAN

CITY           SKY/WX    TMP DP  RH WIND       PRES   REMARKS
ADRIAN         CLEAR     69  65  86 CALM      30.09S
ALMA           CLEAR     64  57  76 W5        30.07F
ANN ARBOR      CLEAR     60  60 100 CALM      30.08F FOG
BAD AXE        CLEAR     66  62  85 CALM      30.09S
CARO           CLEAR     61  59  92 CALM      30.07F
DETROIT CITY   CLEAR     71  66  84 CALM      30.08F
DETROIT        CLEAR     73  65  75 CALM      30.08F
FLINT          CLEAR     62  59  90 S3        30.08S
GROSSE ILE     CLEAR     70  65  86 CALM      30.06F
HILLSDALE      MOCLDY    68  63  83 E5        30.08F
HOWELL         CLEAR     68  63  83 SE3       30.09S

CITY           SKY/WX    TMP DP  RH WIND       PRES   REMARKS
JACKSON        CLEAR     71  62  73 SE5       30.08F
LAMBERTVILLE   PTCLDY    68  66  92 CALM      30.07S FOG
LANSING        CLEAR     73  61  65 S6        30.08S
LAPEER         FAIR      62  60  96 CALM      30.09F FOG
MASON          CLEAR     71  62  73 S5        30.08F
MONROE         CLEAR     73  69  87 CALM      30.07S
MT. CLEMENS    CLEAR     66  66 100 CALM      30.06F
PONTIAC        CLEAR     67  65  93 CALM      30.08F
PORT HOPE        N/A     71  64  78 S5        30.06F
PORT HURON     CLEAR     64  63  94 CALM      30.09S FOG
TRI CITIES     CLEAR     74  65  73 S8        30.07F
MIDLAND        FAIR      68  62  80 CALM      30.06S
TROY           CLEAR     71  65  80 CALM      30.10F
SAGINAW HB     CLEAR     68  61  77 SE5       30.06S
$$
MIZ043>046-050>051-056>058-064>065-071>073-077>080-250600-
SOUTHWEST LOWER MICHIGAN

CITY           SKY/WX    TMP DP  RH WIND       PRES   REMARKS
BATTLE CREEK   CLEAR     71  62  73 SE5       30.08S
BENTON HARBOR  CLEAR     64  60  87 CALM      30.03S
BIG RAPIDS     CLEAR     64  60  90 CALM      30.06S
COLDWATER      PTCLDY    70  64  81 SE6       30.07F
FREMONT        FAIR      65  63  93 E3        30.04S
HOLLAND        CLEAR     64  58  80 CALM      30.05S
GRAND RAPIDS   CLEAR     70  60  70 S7        30.06S
IONIA          FAIR      68  57  67 S6        30.06S
KALAMAZOO      CLEAR     71  59  65 CALM      30.07S
LUDINGTON      CLEAR     63  60  91 CALM      30.02S
MARSHALL       CLEAR     69  63  79 SE5       30.07S
MOUNT PLEASANT CLEAR     68  59  72 CALM      30.06S
MUSKEGON       CLEAR     64  60  87 CALM      30.03F
SOUTH HAVEN    CLEAR     65  60  83 CALM      30.04S
$$
MIZ016>042-250600-
NORTHERN LOWER MICHIGAN

CITY           SKY/WX    TMP DP  RH WIND       PRES   REMARKS
ALPENA         CLEAR     64  62  93 CALM      30.06S
BEAVER ISLAND  CLEAR     70  64  83 SE3       30.01S
BELLAIRE         N/A     64  63  96 CALM      30.04S FOG
CADILLAC       CLEAR     64  59  83 CALM      30.07F
CHARLEVOIX     CLEAR     69  64  84 SE3       30.05F
FRANKFORT      CLEAR     64  62  90 CALM      30.01F
GAYLORD        CLEAR     66  58  75 CALM      30.08S
GRAYLING       CLEAR     62  58  85 CALM      30.08S
HARBOR SPRINGS CLEAR     66  64  94 NE3       30.03F
HOUGHTON LAKE  CLEAR     65  60  84 SE3       30.08S
MANISTEE       CLEAR     63  62  97 E8        30.02F
OSCODA         CLEAR     66  65  95 SW3       30.06S
PELLSTON       CLEAR     63  62  97 CALM      30.03F
ROGERS CITY    CLEAR     72  63  74 SW7       30.05S
TRAVERSE CITY  CLEAR     70  64  81 CALM      30.02S
$$
MIZ007>008-015-250600-
EASTERN UPPER MICHIGAN

CITY           SKY/WX    TMP DP  RH WIND       PRES   REMARKS
KINROSS        CLEAR     68  65  90 S3        30.02F
MACKINAC ISLAN CLEAR     73  64  73 S9        30.02S
NEWBERRY       CLEAR     68  66  95 S7        30.00S
S. S. MARIE    CLEAR     69  66  90 SE3       30.01F
MUNISING         N/A     72  64  76 S5        29.95F
$$
MIZ004>006-011>014-085-250600-
CENTRAL UPPER MICHIGAN

CITY           SKY/WX    TMP DP  RH WIND       PRES   REMARKS
MANISTIQUE     CLEAR     64  58  81 S3        29.99F HAZE
ESCANABA       CLEAR     69  65  86 SW5       29.97S
MENOMINEE      CLEAR     70  62  76 SW7       29.98S
SAWYER-GWINN   CLEAR     67  62  84 S8        29.99R
$$
MIZ001>003-009>011-084-250600-
WESTERN UPPER MICHIGAN

CITY           SKY/WX    TMP DP  RH WIND       PRES   REMARKS
IRON MOUNTAIN  CLEAR     69  62  78 S5        29.98S
HOUGHTON       CLEAR     71  62  73 SW6       29.90F
COPPER HARBOR    N/A     73  63  70 VRB7      29.88S
IRONWOOD       CLEAR     74  60  61 S7        29.92R
$$

ABBREVIATIONS USED IN REMARKS
   TC - TEMPERATURE IN CELSIUS
  WCI - WIND CHILL INDEX
   HX - HEAT INDEX
  VSB - VISIBILITY





USA.gov is the U.S. government's official web portal to all federal, state and local government web resources and services.